Wind_Speed
6 5 7 7 8 11 13 15 20 21 21 25 28 32 30 27 27 24 27 32 36 32 30 29 28 26 22 23 23 21 21 23 25 24 20 19 19 21 23 22 18 16 14 14
6 8 8 9 11 13 18 20 20 20 9 19 28 34 29 19 12 20 25 28 29 31 33 31 29 28 25 24 24 23 21 20 22 23 20 18 16 18 22 24 20 18 15 15
7 9 8 11 14 14 14 16 17 19 23 23 25 27 7 14 30 22 18 22 25 32 32 29 27 25 25 24 23 22 22 21 20 21 22 19 17 15 19 22 22 21 19 18
4 3 3 6 9 10 12 12 14 18 21 10 21 12 28 20 16 24 17 19 23 25 28 28 27 27 27 25 24 22 21 19 18 19 21 21 19 16 16 20 23 24 21 20
5 5 6 9 10 10 11 15 19 21 19 17 13 9 5 13 15 17 17 23 28 27 28 33 29 23 22 20 19 19 16 15 15 15 17 19 19 18 15 17 18 21 18 18
6 7 8 7 11 13 14 16 16 9 9 2 4 7 6 7 14 22 25 29 35 38 34 31 26 19 17 14 11 10 9 8 8 9 11 10 11 12 13 15 15 15 11 20
3 5 7 7 7 7 9 13 7 4 3 5 7 12 11 20 17 26 34 34 32 29 27 23 22 17 15 10 6 4 4 5 6 6 4 7 7 9 10 15 15 14 18 18
4 4 3 3 7 8 11 7 2 4 3 9 22 10 8 19 20 25 28 34 32 32 30 24 20 18 15 12 8 4 1 3 6 7 8 9 3 10 12 14 21 23 19 19
4 3 3 4 10 10 3 4 4 13 17 10 8 11 15 19 23 24 34 38 30 29 30 26 20 19 18 15 13 10 6 4 2 2 2 4 6 6 5 6 16 16 16 17
5 5 8 8 8 8 10 8 4 5 2 5 10 26 14 14 24 37 30 29 27 28 28 25 22 20 21 20 18 16 14 13 12 12 11 10 9 6 3 3 4 4 4 7
7 8 7 9 7 10 9 9 9 10 10 4 3 14 10 33 33 28 32 33 31 30 30 26 23 22 23 23 21 21 21 21 20 18 19 17 17 18 16 12 9 7 4 5
11 8 8 11 13 14 11 11 12 9 12 15 21 41 41 23 21 41 36 29 30 29 29 28 25 23 23 24 27 26 26 23 21 22 21 20 19 19 19 22 20 16 14 12
7 8 3 3 6 7 8 11 20 17 25 32 13 24 35 47 46 44 38 36 27 23 27 29 29 32 29 27 29 32 34 31 32 32 33 33 31 28 24 22 20 22 24 20
13 16 15 12 16 18 21 23 21 23 25 34 38 46 44 33 33 32 31 30 29 33 34 36 36 35 33 33 35 34 32 32 32 36 38 35 35 31 27 26 24 23 23 24
15 17 17 18 20 22 26 28 28 29 34 32 40 36 33 32 30 31 36 35 34 32 28 28 31 36 36 36 34 32 35 37 36 35 30 26 26 27 27 25 25 24 24 25
19 16 17 23 22 25 28 30 29 20 23 27 28 35 30 26 30 37 31 32 29 22 21 21 25 28 31 31 34 36 34 34 31 29 29 28 27 27 28 28 27 25 24 24
17 15 15 16 18 23 24 5 14 19 25 28 25 26 31 38 37 27 26 23 23 23 20 22 25 28 29 30 30 29 29 30 30 26 24 24 23 23 25 25 25 25 24 24
18 16 15 15 20 3 5 17 25 27 25 22 28 33 36 27 20 23 27 30 25 24 23 21 22 23 24 24 22 22 25 27 25 23 22 21 22 22 24 25 25 25 24 23
21 20 12 7 8 24 25 11 10 17 32 34 35 34 30 28 28 32 35 34 33 27 25 25 25 23 23 25 28 31 35 34 31 30 27 26 23 23 24 24 25 26 24 22
23 23 20 14 5 6 10 20 26 28 31 19 22 29 34 38 42 45 41 35 33 33 31 30 29 30 29 30 32 33 38 39 39 34 32 31 29 27 25 25 26 26 27 24
20 20 26 23 11 14 20 21 21 10 25 30 36 44 44 40 41 44 41 38 37 40 45 48 44 41 43 43 41 42 43 42 42 41 35 32 33 32 30 29 28 27 28 26
15 12 14 15 14 12 10 18 20 29 37 42 40 42 42 42 43 44 43 43 43 44 44 46 49 48 48 47 47 47 46 44 42 37 34 32 33 34 34 35 33 32 30 30
15 22 10 13 8 21 30 29 32 35 34 36 39 41 41 40 40 40 40 39 39 42 44 45 45 44 43 40 40 38 36 37 37 38 38 37 36 36 37 38 38 38 36 35
21 23 22 18 20 23 27 29 29 31 33 35 35 36 36 35 34 32 32 33 38 37 37 36 36 38 39 40 41 41 41 42 43 43 42 40 38 37 38 39 40 41 41 40
19 19 21 25 24 25 27 25 27 29 32 31 29 31 30 28 26 28 29 30 31 32 31 29 30 31 32 37 38 39 42 44 44 43 41 40 40 40 41 41 42 42 43 44
26 23 22 25 21 21 24 25 25 26 26 26 23 20 24 24 24 23 24 26 26 26 27 27 25 24 24 28 35 41 44 46 46 46 44 43 43 42 42 43 42 43 44 44
Wind_Direction
263 264 271 287 297 299 295 292 291 296 298 288 290 291 304 312 303 295 288 287 298 309 309 301 297 296 292 294 298 300 303 284 277 269 276 269 262 247 250 249 248 258 266 276
266 270 278 284 280 279 285 291 296 301 309 290 299 296 311 305 298 322 307 300 304 310 315 310 299 294 292 291 293 296 296 294 283 269 262 262 259 248 243 242 244 245 248 262
272 269 280 285 291 289 292 297 306 307 314 315 313 313 313 315 309 319 316 306 309 312 315 313 307 302 300 300 297 297 296 290 285 272 257 253 249 245 244 244 240 240 246 253
277 274 299 301 302 302 302 297 304 307 319 321 315 294 312 335 325 319 315 304 313 322 324 323 315 308 307 307 305 302 296 289 281 274 257 249 245 239 245 248 248 246 243 242
250 269 289 297 297 310 297 308 308 312 309 309 321 274 336 324 322 328 327 324 324 328 323 321 314 307 308 310 311 309 303 294 282 273 262 253 248 243 243 251 253 250 246 238
262 275 287 292 300 300 303 311 319 307 301 326 52 340 282 346 324 318 319 318 315 317 322 313 302 299 299 302 312 318 326 317 304 281 263 255 258 252 235 252 250 225 246 237
292 274 279 298 316 319 331 340 327 358 344 233 258 323 266 298 313 312 313 315 316 317 324 312 298 288 284 284 293 318 358 19 35 30 340 244 221 228 246 245 234 248 228 257
263 260 271 320 333 327 319 324 273 235 276 285 301 258 306 322 310 312 318 320 313 312 307 302 291 275 267 265 258 247 165 72 69 65 66 65 56 235 231 222 253 242 233 228
217 248 232 267 292 303 285 252 280 261 270 292 271 282 299 307 306 318 325 316 309 308 303 295 282 265 261 257 253 249 245 250 275 310 13 51 51 60 57 292 245 234 251 252
247 268 264 272 288 285 276 280 273 250 346 297 289 304 303 341 318 315 320 312 313 311 307 297 283 269 264 262 259 258 264 275 279 280 281 284 291 297 315 360 16 2 279 291
258 252 262 278 289 299 284 266 263 267 254 205 268 286 278 304 311 316 324 323 314 305 303 301 287 274 267 266 270 278 285 285 286 285 281 277 272 267 276 280 277 273 289 270
252 264 249 281 281 275 265 266 273 251 264 253 267 276 294 296 299 306 309 307 311 301 295 285 282 279 272 274 275 281 280 291 301 298 293 288 281 271 268 258 256 265 267 262
220 230 255 268 259 267 256 270 289 277 274 273 267 273 291 305 309 307 304 299 293 291 295 292 294 297 295 293 291 295 295 289 285 287 291 294 292 286 276 270 262 264 257 263
250 249 250 246 279 285 281 283 280 284 275 278 276 285 303 316 318 314 313 309 300 277 284 291 289 286 284 287 284 279 279 282 281 283 285 284 283 282 279 274 268 261 254 252
244 254 265 274 282 282 282 286 293 287 291 279 291 296 311 316 312 311 313 312 306 297 285 280 280 277 276 280 279 282 284 285 288 290 288 280 275 273 272 269 266 262 258 253
238 260 273 281 284 285 288 296 298 290 288 284 301 303 316 311 310 311 310 311 316 305 286 277 276 276 277 280 282 284 286 288 292 292 290 284 277 271 268 266 263 260 258 256
238 250 274 280 284 297 297 301 304 301 300 303 300 304 305 311 317 309 307 319 324 312 305 291 282 281 284 283 287 291 293 293 293 292 289 283 274 267 264 261 259 258 256 254
244 254 259 272 296 307 250 307 296 292 289 289 293 299 304 306 302 304 308 311 299 290 289 285 285 288 287 290 296 305 307 299 294 291 289 285 276 269 263 261 260 257 255 253
245 246 243 248 245 282 298 289 283 293 301 300 300 301 299 292 287 291 297 301 295 285 275 273 268 262 270 277 285 292 298 303 294 290 291 284 278 270 267 263 260 260 255 251
237 239 230 222 227 233 289 293 297 300 293 296 301 299 299 295 295 298 301 296 287 283 268 256 259 264 271 282 288 290 293 296 298 293 291 282 277 271 264 262 261 260 261 259
215 224 230 231 233 265 277 289 296 276 302 303 301 303 305 305 303 303 303 300 295 288 280 277 273 267 274 280 283 287 285 287 290 293 291 281 271 267 265 262 259 258 257 255
226 216 217 206 217 265 286 295 287 298 297 299 300 301 302 302 300 298 298 297 295 293 288 285 280 279 280 282 280 276 276 280 282 283 283 279 274 269 264 261 258 257 256 256
229 236 240 224 245 274 288 294 297 298 299 304 309 310 308 307 304 302 302 300 299 298 295 287 281 273 268 269 271 274 275 272 272 277 277 278 273 269 269 264 259 256 255 255
239 248 244 256 280 291 289 296 302 303 307 312 316 316 315 317 315 313 311 309 308 310 309 300 293 281 268 267 269 272 273 273 275 277 277 274 270 267 265 264 263 258 255 254
251 250 258 268 278 285 292 300 305 310 314 317 320 321 324 326 327 326 324 322 324 327 329 321 310 303 281 267 269 272 274 275 275 276 275 273 270 266 263 262 262 260 256 253
262 269 268 279 278 277 298 308 311 314 316 314 319 327 328 333 336 335 332 336 338 343 345 347 343 331 314 291 275 273 274 276 278 278 275 272 269 267 264 262 259 258 256 250
Height
3128 3129 3129 3129 3128 3130 3129 3126 3123 3124 3125 3119 3117 3115 3116 3114 3112 3109 3107 3104 3102 3101 3098 3096 3094 3092 3091 3089 3088 3085 3083 3082 3081 3081 3082 3082 3082 3083 3084 3086 3087 3088 3089 3090
3128 3126 3128 3128 3129 3128 3128 3124 3121 3120 3119 3117 3114 3110 3111 3109 3107 3106 3104 3102 3101 3099 3096 3092 3089 3087 3086 3085 3084 3082 3079 3078 3077 3076 3077 3078 3078 3078 3079 3081 3082 3084 3085 3086
3125 3126 3126 3126 3126 3125 3126 3123 3121 3119 3115 3115 3110 3105 3108 3109 3105 3102 3101 3099 3099 3097 3094 3090 3086 3084 3083 3081 3079 3077 3075 3073 3072 3072 3072 3072 3074 3074 3075 3076 3078 3079 3080 3081
3122 3123 3124 3125 3124 3123 3123 3121 3120 3118 3115 3114 3114 3104 3103 3103 3102 3101 3100 3099 3099 3095 3091 3087 3084 3082 3079 3077 3075 3073 3070 3068 3067 3067 3067 3067 3068 3069 3071 3072 3073 3074 3075 3076
3121 3120 3121 3122 3122 3121 3120 3119 3117 3115 3112 3110 3109 3108 3101 3101 3101 3099 3099 3097 3094 3092 3090 3086 3082 3079 3076 3074 3072 3070 3068 3065 3063 3062 3062 3063 3064 3064 3065 3068 3068 3068 3070 3071
3118 3118 3119 3119 3119 3119 3118 3116 3115 3111 3110 3110 3109 3109 3101 3100 3100 3097 3096 3093 3092 3088 3086 3082 3079 3077 3075 3073 3071 3068 3066 3063 3061 3059 3059 3059 3060 3061 3061 3063 3064 3065 3066 3066
3118 3118 3117 3117 3117 3117 3116 3115 3113 3114 3113 3110 3104 3104 3098 3099 3099 3096 3093 3091 3089 3085 3083 3080 3077 3075 3074 3073 3071 3069 3067 3064 3062 3059 3057 3057 3058 3059 3059 3059 3060 3061 3061 3060
3116 3116 3117 3117 3117 3117 3115 3116 3118 3125 3117 3104 3105 3098 3097 3099 3097 3095 3093 3090 3087 3083 3079 3076 3075 3073 3072 3071 3070 3068 3067 3066 3063 3062 3060 3058 3057 3056 3056 3055 3056 3056 3055 3058
3114 3115 3115 3115 3116 3117 3115 3115 3117 3114 3112 3107 3098 3094 3095 3095 3093 3091 3089 3087 3083 3079 3076 3072 3071 3070 3069 3068 3067 3066 3065 3064 3064 3062 3060 3059 3058 3057 3055 3054 3053 3049 3050 3051
3111 3113 3113 3112 3114 3114 3114 3115 3116 3115 3117 3115 3094 3092 3091 3089 3087 3087 3085 3083 3079 3075 3072 3069 3067 3066 3065 3064 3063 3063 3062 3061 3060 3060 3059 3058 3057 3056 3055 3054 3053 3051 3051 3050
3109 3111 3111 3110 3110 3109 3111 3112 3114 3113 3111 3108 3105 3086 3086 3087 3086 3083 3081 3078 3075 3071 3068 3065 3063 3061 3060 3059 3058 3057 3056 3055 3055 3055 3055 3054 3053 3053 3052 3051 3051 3051 3050 3050
3106 3106 3106 3107 3105 3106 3107 3108 3108 3107 3103 3100 3095 3076 3084 3082 3080 3078 3076 3072 3069 3064 3061 3058 3056 3055 3054 3053 3051 3049 3048 3048 3048 3048 3048 3048 3048 3047 3047 3048 3047 3047 3048 3048
3102 3101 3103 3102 3103 3102 3103 3103 3103 3101 3098 3091 3092 3077 3078 3075 3072 3071 3067 3064 3063 3058 3055 3052 3049 3048 3047 3046 3047 3044 3042 3043 3044 3043 3042 3041 3041 3041 3041 3042 3043 3043 3043 3043
3099 3097 3099 3099 3098 3098 3097 3096 3096 3095 3089 3082 3078 3069 3068 3068 3063 3059 3057 3054 3052 3051 3050 3046 3043 3043 3042 3041 3041 3040 3038 3037 3037 3037 3037 3036 3034 3033 3033 3033 3035 3036 3037 3037
3096 3094 3094 3093 3092 3091 3088 3086 3087 3085 3080 3077 3067 3066 3064 3061 3058 3054 3050 3046 3043 3041 3041 3040 3037 3035 3035 3033 3032 3030 3028 3028 3028 3028 3028 3027 3027 3027 3026 3026 3026 3027 3028 3030
3091 3090 3089 3086 3086 3083 3078 3077 3076 3074 3071 3065 3063 3059 3059 3054 3051 3048 3044 3039 3036 3034 3032 3031 3030 3029 3027 3027 3026 3024 3023 3021 3020 3020 3019 3019 3019 3019 3019 3019 3019 3019 3020 3021
3087 3087 3086 3081 3080 3077 3071 3067 3067 3065 3064 3061 3057 3054 3049 3047 3044 3041 3037 3035 3033 3031 3029 3027 3025 3023 3022 3021 3019 3018 3016 3015 3013 3012 3011 3010 3011 3011 3011 3011 3012 3012 3012 3013
3080 3082 3084 3078 3076 3074 3062 3062 3061 3059 3056 3054 3051 3048 3044 3041 3039 3036 3033 3029 3026 3023 3021 3020 3018 3016 3015 3014 3013 3012 3011 3009 3007 3005 3005 3004 3004 3004 3004 3004 3005 3005 3006 3006
3074 3076 3077 3075 3070 3062 3056 3055 3055 3053 3049 3045 3043 3040 3038 3036 3034 3032 3028 3024 3021 3017 3015 3013 3010 3008 3006 3006 3005 3003 3002 3001 3000 2999 2998 2997 2997 2997 2997 2997 2998 2998 2999 3000
3067 3070 3073 3068 3068 3063 3050 3050 3048 3047 3039 3037 3036 3033 3030 3028 3023 3020 3017 3015 3014 3009 3006 3003 3001 2999 2997 2995 2994 2993 2991 2990 2990 2990 2989 2989 2989 2989 2990 2990 2991 2991 2992 2993
3060 3063 3064 3061 3060 3049 3044 3043 3044 3044 3041 3033 3030 3025 3021 3017 3014 3007 3004 3002 3000 2997 2995 2992 2990 2987 2985 2984 2982 2982 2980 2979 2978 2978 2979 2979 2978 2979 2980 2981 2982 2983 2984 2985
3051 3055 3054 3054 3054 3044 3038 3038 3040 3037 3030 3026 3022 3015 3011 3007 3002 2998 2994 2990 2987 2983 2980 2976 2973 2972 2970 2969 2968 2968 2968 2967 2967 2966 2966 2967 2967 2967 2969 2969 2972 2973 2975 2976
3045 3045 3044 3043 3037 3035 3034 3031 3029 3026 3021 3017 3011 3006 3000 2994 2989 2985 2981 2977 2973 2969 2965 2959 2956 2955 2956 2956 2956 2954 2954 2953 2953 2954 2954 2954 2955 2955 2956 2957 2959 2960 2962 2964
3034 3035 3036 3034 3028 3028 3026 3024 3020 3016 3012 3008 3001 2994 2988 2983 2979 2975 2970 2966 2962 2956 2950 2945 2942 2940 2941 2942 2942 2941 2941 2940 2940 2939 2940 2941 2941 2942 2943 2943 2944 2946 2949 2951
3029 3027 3026 3023 3023 3022 3018 3016 3014 3008 3002 2998 2994 2987 2981 2977 2973 2967 2962 2958 2953 2947 2941 2935 2931 2928 2928 2929 2930 2929 2927 2925 2925 2925 2925 2926 2926 2927 2928 2930 2931 2932 2935 2938
3020 3020 3018 3016 3017 3016 3011 3009 3005 3001 2996 2992 2988 2984 2977 2972 2967 2962 2957 2953 2948 2943 2938 2932 2926 2922 2919 2919 2920 2918 2915 2913 2911 2911 2911 2911 2911 2912 2913 2914 2916 2917 2919 2923